Regional Weather Roundup
Issued by NWS

Home | Current Version | Previous Version | Graphics & Text | Print | Product List | Glossary On
Versions: 1 2 3 4 5 6 7 8 9 10 11 12 13 14 15 16 17 18 19 20 21 22 23 24 25 26 27 28 29 30 31 32 33 34 35 36 37 38 39 40 41 42 43 44 45 46 47 48 49 50
000
ASUS43 KFSD 102110
RWRSD

WEATHER ROUNDUP FOR SOUTH DAKOTA
NATIONAL WEATHER SERVICE SIOUX FALLS SD
400 PM CDT THU JUL 10 2014

NOTE: "FAIR" INDICATES FEW OR NO CLOUDS BELOW 12,000 FEET WITH NO
SIGNIFICANT WEATHER AND/OR OBSTRUCTIONS TO VISIBILITY.


SDZ001>005-009-010-012>017-102200-
NORTHWEST AND NORTH CENTRAL SOUTH DAKOTA

CITY           SKY/WX    TMP DP  RH WIND       PRES   REMARKS
BUFFALO          N/A     87  65  47 SW7       29.77F
FAITH            N/A     80  65  59 S10       29.84F
MOBRIDGE       PTSUNNY   77  66  68 SE13      29.79F
$$

SDZ012>016-024>037-041>051-057-063-072>074-102200-
SOUTHWEST AND SOUTH CENTRAL SOUTH DAKOTA

CITY           SKY/WX    TMP DP  RH WIND       PRES   REMARKS
RAPID CTY ARPT TSTM      73  66  78 W9        29.90R
PIERRE         PTSUNNY   81  66  60 S12       29.80F
CUSTER         PTSUNNY   77  58  51 E9        30.02S
ELLSWORTH AFB  PTSUNNY   75  69  81 SW8       29.89S
PHILIP         MOSUNNY   87  65  47 S7        29.81F
PINE RIDGE     PTSUNNY   87  63  44 NW5       29.85F
WINNER         FAIR      90  66  45 S17G23    29.82F
$$

SDZ004>011-016>023-039-040-102200-
NORTHEAST SOUTH DAKOTA

CITY           SKY/WX    TMP DP  RH WIND       PRES   REMARKS
ABERDEEN       CLOUDY    74  66  76 SE7       29.85S
WATERTOWN      LGT RAIN  76  63  64 S14G22    29.92S
SISSETON         N/A     79  65  62 S13       29.86F
$$

SDZ017-020-022-023-036>040-048>070-102200-
SOUTHEAST SOUTH DAKOTA

CITY           SKY/WX    TMP DP  RH WIND       PRES   REMARKS
SIOUX FALLS    CLOUDY    81  63  54 S21       29.94S
HURON          PTSUNNY   80  65  59 SE6G18    29.85F
CHAMBERLAIN    PTSUNNY   85  67  56 S16       29.83S
MITCHELL       CLOUDY    86  66  51 S21G29    29.86S
YANKTON        CLOUDY    82  66  57 S16       29.91F
$$

ABBREVIATIONS USED IN REMARKS
   TC - TEMPERATURE IN CELSIUS
  WCI - WIND CHILL INDEX
   HX - HEAT INDEX
  VSB - VISIBILITY




USA.gov is the U.S. government's official web portal to all federal, state and local government web resources and services.